Moses Lake, WA
on Sunday, February 24, 2013

Sunday
Previous Day Next Day
Daily Summary
 ActualAverageRecord
Temperature
Mean Temperature °F 38°F  
Max Temperature 45°F 48°F 65°F (1986)
Min Temperature 26°F 28°F 10°F (2011)
Degree Days
Heating Degree Days 29 27  
Month to date heating degree days 664 725  
Since 1 July heating degree days 4018 4399  
Moisture
Dew Point 25°F   
Average Humidity 65    
Maximum Humidity 85    
Minimum Humidity 45    
Precipitation
Precipitation 0.00 in 0.03 in 0.35 in (2007)
Month to date precipitation T 0.70  
Year to date precipitation 0.28 1.84  
Wind
Wind Speed 8 mph   
Max Wind Speed 16 mph   
Max Gust Speed 20 mph   
Visibility 10 miles   
Events     

Key: T is trace of precipitation, MM is missing value
Source: NWS Daily Summary
Time(PST)TemperatureDew PointHumidity Pressure Visibility Wind DirectionWind SpeedGust SpeedPrecipitationEvents Conditions
12:52 AM 34.0°F 23.0°F 64% 30.28 in 10.0 miles WSW 6.9 mph - N/A   Clear
1:52 AM 34.0°F 23.0°F 64% 30.29 in 10.0 miles WSW 3.5 mph - N/A   Clear
2:52 AM 30.0°F 23.0°F 75% 30.29 in 10.0 miles Calm Calm - N/A   Clear
3:52 AM 28.9°F 23.0°F 78% 30.29 in 10.0 miles South 8.1 mph - N/A   Clear
4:52 AM 30.0°F 24.1°F 79% 30.30 in 10.0 miles SSW 5.8 mph - N/A   Clear
5:52 AM 28.0°F 24.1°F 85% 30.30 in 10.0 miles SE 8.1 mph - N/A   Clear
6:52 AM 27.0°F 21.9°F 81% 30.30 in 10.0 miles SE 8.1 mph - N/A   Clear
7:52 AM 32.0°F 25.0°F 75% 30.31 in 10.0 miles SSE 8.1 mph - N/A   Mostly Cloudy
8:52 AM 36.0°F 27.0°F 70% 30.32 in 10.0 miles SSE 9.2 mph - N/A   Overcast
9:52 AM 41.0°F 26.1°F 55% 30.31 in 10.0 miles SSE 11.5 mph - N/A   Overcast
10:52 AM 44.1°F 26.1°F 49% 30.31 in 10.0 miles SSW 10.4 mph - N/A   Scattered Clouds
11:52 AM 44.1°F 26.1°F 49% 30.30 in 10.0 miles SSW 11.5 mph - N/A   Partly Cloudy
12:52 PM 43.0°F 25.0°F 49% 30.29 in 10.0 miles South 12.7 mph - N/A   Scattered Clouds
1:52 PM 43.0°F 26.1°F 51% 30.27 in 10.0 miles SSE 13.8 mph - N/A   Clear
2:52 PM 43.0°F 26.1°F 51% 30.26 in 10.0 miles SSE 6.9 mph - N/A   Clear
3:52 PM 44.1°F 26.1°F 49% 30.25 in 10.0 miles South 11.5 mph - N/A   Clear
4:52 PM 44.1°F 24.1°F 45% 30.22 in 10.0 miles South 8.1 mph - N/A   Clear
5:52 PM 37.0°F 25.0°F 62% 30.21 in 10.0 miles South 4.6 mph - N/A   Clear
6:52 PM 37.0°F 25.0°F 62% 30.20 in 10.0 miles South 5.8 mph - N/A   Partly Cloudy
7:52 PM 33.1°F 26.1°F 75% 30.16 in 10.0 miles SE 5.8 mph - N/A   Clear
8:52 PM 33.1°F 27.0°F 78% 30.14 in 10.0 miles SSE 4.6 mph - N/A   Clear
9:52 PM 32.0°F 26.1°F 79% 30.10 in 10.0 miles SSE 5.8 mph - N/A   Clear
10:52 PM 33.1°F 27.0°F 78% 30.07 in 10.0 miles SE 5.8 mph - N/A   Mostly Cloudy
11:52 PM 34.0°F 26.1°F 73% 30.04 in 10.0 miles SE 5.8 mph - N/A   Partly Cloudy
Moon Phase
Feb. 24 Feb. 25 Mar. 04 Mar. 11 Mar. 19
Sunrise:06:45 AM (PST) Moon Rise:04:52 PM (PST)2/24
Sunset:05:35 PM (PST) Moon Set:05:47 AM (PST)2/24

Copyright © 2014 The Weather Underground, Inc.